Year,Month,Day,Hour,Minute,Value (Times are PST for temperature in C)
2008,07,14,00,00,13.00
2008,07,14,00,01,13.00
2008,07,14,00,02,12.90
2008,07,14,00,03,12.90
2008,07,14,00,04,12.90
2008,07,14,00,05,12.80
2008,07,14,00,06,12.80
2008,07,14,00,07,12.80
2008,07,14,00,08,12.80
2008,07,14,00,09,12.80
2008,07,14,00,10,12.80
2008,07,14,00,11,12.70
2008,07,14,00,12,12.70
2008,07,14,00,13,12.60
2008,07,14,00,14,12.60
2008,07,14,00,15,12.60
2008,07,14,00,16,12.60
2008,07,14,00,17,12.60
2008,07,14,00,18,12.60
2008,07,14,00,19,12.60
2008,07,14,00,20,12.50
2008,07,14,00,21,12.50
2008,07,14,00,22,12.50
2008,07,14,00,23,12.50
2008,07,14,00,24,12.50
2008,07,14,00,25,12.50
2008,07,14,00,26,12.40
2008,07,14,00,27,12.40
2008,07,14,00,28,12.40
2008,07,14,00,29,12.40
2008,07,14,00,30,12.30
2008,07,14,00,31,12.30
2008,07,14,00,32,12.30
2008,07,14,00,33,12.30
2008,07,14,00,34,12.30
2008,07,14,00,35,12.20
2008,07,14,00,36,12.20
2008,07,14,00,37,12.10
2008,07,14,00,38,12.10
2008,07,14,00,39,12.10
2008,07,14,00,40,12.00
2008,07,14,00,41,12.00
2008,07,14,00,42,12.00
2008,07,14,00,43,12.00
2008,07,14,00,44,11.90
2008,07,14,00,45,11.90
2008,07,14,00,46,11.90
2008,07,14,00,47,11.80
2008,07,14,00,48,11.80
2008,07,14,00,49,11.80
2008,07,14,00,50,11.80
2008,07,14,00,51,11.80
2008,07,14,00,52,11.70
2008,07,14,00,53,11.70
2008,07,14,00,54,11.70
2008,07,14,00,55,11.60
2008,07,14,00,56,11.60
2008,07,14,00,57,11.60
2008,07,14,00,58,11.60
2008,07,14,00,59,11.60
2008,07,14,01,00,11.60
2008,07,14,01,01,11.60
2008,07,14,01,02,11.60
2008,07,14,01,03,11.60
2008,07,14,01,04,11.60
2008,07,14,01,05,11.60
2008,07,14,01,06,11.60
2008,07,14,01,07,11.60
2008,07,14,01,08,11.60
2008,07,14,01,09,11.60
2008,07,14,01,10,11.60
2008,07,14,01,11,11.60
2008,07,14,01,12,11.60
2008,07,14,01,13,11.60
2008,07,14,01,14,11.60
2008,07,14,01,15,11.60
2008,07,14,01,16,11.60
2008,07,14,01,17,11.60
2008,07,14,01,18,11.60
2008,07,14,01,19,11.40
2008,07,14,01,20,11.40
2008,07,14,01,21,11.40
2008,07,14,01,22,11.40
2008,07,14,01,23,11.40
2008,07,14,01,24,11.40
2008,07,14,01,25,11.40
2008,07,14,01,26,11.40
2008,07,14,01,27,11.40
2008,07,14,01,28,11.40
2008,07,14,01,29,11.40
2008,07,14,01,30,11.40
2008,07,14,01,31,11.40
2008,07,14,01,32,11.40
2008,07,14,01,33,11.40
2008,07,14,01,34,11.40
2008,07,14,01,35,11.40
2008,07,14,01,36,11.40
2008,07,14,01,37,11.40
2008,07,14,01,38,11.40
2008,07,14,01,39,11.40
2008,07,14,01,40,11.40
2008,07,14,01,41,11.40
2008,07,14,01,42,11.40
2008,07,14,01,43,11.40
2008,07,14,01,44,11.30
2008,07,14,01,45,11.30
2008,07,14,01,46,11.30
2008,07,14,01,47,11.30
2008,07,14,01,48,11.30
2008,07,14,01,49,11.30
2008,07,14,01,50,11.30
2008,07,14,01,51,11.30
2008,07,14,01,52,11.30
2008,07,14,01,53,11.30
2008,07,14,01,54,11.30
2008,07,14,01,55,11.20
2008,07,14,01,56,11.20
2008,07,14,01,57,11.20
2008,07,14,01,58,11.20
2008,07,14,01,59,11.20
2008,07,14,02,00,11.10
2008,07,14,02,01,11.10
2008,07,14,02,02,11.10
2008,07,14,02,03,11.10
2008,07,14,02,04,11.10
2008,07,14,02,05,11.10
2008,07,14,02,06,11.10
2008,07,14,02,07,11.10
2008,07,14,02,08,11.10
2008,07,14,02,09,11.10
2008,07,14,02,10,11.10
2008,07,14,02,11,11.10
2008,07,14,02,12,11.10
2008,07,14,02,13,11.10
2008,07,14,02,14,11.10
2008,07,14,02,15,11.10
2008,07,14,02,16,10.90
2008,07,14,02,17,10.90
2008,07,14,02,18,10.90
2008,07,14,02,19,11.00
2008,07,14,02,20,11.10
2008,07,14,02,21,11.10
2008,07,14,02,22,11.00
2008,07,14,02,23,10.90
2008,07,14,02,24,10.90
2008,07,14,02,25,10.90
2008,07,14,02,26,10.90
2008,07,14,02,27,10.90
2008,07,14,02,28,10.90
2008,07,14,02,29,10.90
2008,07,14,02,30,10.90
2008,07,14,02,31,10.90
2008,07,14,02,32,10.90
2008,07,14,02,33,10.90
2008,07,14,02,34,10.90
2008,07,14,02,35,10.90
2008,07,14,02,36,10.90
2008,07,14,02,37,10.90
2008,07,14,02,38,10.90
2008,07,14,02,39,10.90
2008,07,14,02,40,10.90
2008,07,14,02,41,10.90
2008,07,14,02,42,10.90
2008,07,14,02,43,10.90
2008,07,14,02,44,10.90
2008,07,14,02,45,10.90
2008,07,14,02,46,10.90
2008,07,14,02,47,10.90
2008,07,14,02,48,10.90
2008,07,14,02,49,10.90
2008,07,14,02,50,10.90
2008,07,14,02,51,10.90
2008,07,14,02,52,10.80
2008,07,14,02,53,10.80
2008,07,14,02,54,10.70
2008,07,14,02,55,10.60
2008,07,14,02,56,10.60
2008,07,14,02,57,10.60
2008,07,14,02,58,10.60
2008,07,14,02,59,10.60
2008,07,14,03,00,10.60
2008,07,14,03,01,10.60
2008,07,14,03,02,10.50
2008,07,14,03,03,10.40
2008,07,14,03,04,10.40
2008,07,14,03,05,10.30
2008,07,14,03,06,10.30
2008,07,14,03,07,10.20
2008,07,14,03,08,10.20
2008,07,14,03,09,10.10
2008,07,14,03,10,10.10
2008,07,14,03,11,10.10
2008,07,14,03,12,10.10
2008,07,14,03,13,10.10
2008,07,14,03,14,10.20
2008,07,14,03,15,10.20
2008,07,14,03,16,10.20
2008,07,14,03,17,10.20
2008,07,14,03,18,10.20
2008,07,14,03,19,10.30
2008,07,14,03,20,10.40
2008,07,14,03,21,10.40
2008,07,14,03,22,10.40
2008,07,14,03,23,10.40
2008,07,14,03,24,10.40
2008,07,14,03,25,10.40
2008,07,14,03,26,10.40
2008,07,14,03,27,10.40
2008,07,14,03,28,10.40
2008,07,14,03,29,10.40
2008,07,14,03,30,10.40
2008,07,14,03,31,10.40
2008,07,14,03,32,10.40
2008,07,14,03,33,10.40
2008,07,14,03,34,10.40
2008,07,14,03,35,10.30
2008,07,14,03,36,10.20
2008,07,14,03,37,10.10
2008,07,14,03,38,10.10
2008,07,14,03,39,10.10
2008,07,14,03,40,10.00
2008,07,14,03,41,9.90
2008,07,14,03,42,9.90
2008,07,14,03,43,9.80
2008,07,14,03,44,9.70
2008,07,14,03,45,9.70
2008,07,14,03,46,9.60
2008,07,14,03,47,9.50
2008,07,14,03,48,9.50
2008,07,14,03,49,9.50
2008,07,14,03,50,9.40
2008,07,14,03,51,9.40
2008,07,14,03,52,9.40
2008,07,14,03,53,9.40
2008,07,14,03,54,9.40
2008,07,14,03,55,9.40
2008,07,14,03,56,9.40
2008,07,14,03,57,9.40
2008,07,14,03,58,9.40
2008,07,14,03,59,9.40
2008,07,14,04,00,9.40
2008,07,14,04,01,9.40
2008,07,14,04,02,9.40
2008,07,14,04,03,9.40
2008,07,14,04,04,9.40
2008,07,14,04,05,9.40
2008,07,14,04,06,9.40
2008,07,14,04,07,9.40
2008,07,14,04,08,9.40
2008,07,14,04,09,9.40
2008,07,14,04,10,9.40
2008,07,14,04,11,9.40
2008,07,14,04,12,9.40
2008,07,14,04,13,9.30
2008,07,14,04,14,9.20
2008,07,14,04,15,9.20
2008,07,14,04,16,9.20
2008,07,14,04,17,9.20
2008,07,14,04,18,9.20
2008,07,14,04,19,9.20
2008,07,14,04,20,9.20
2008,07,14,04,21,9.20
2008,07,14,04,22,9.20
2008,07,14,04,23,9.20
2008,07,14,04,24,9.20
2008,07,14,04,25,9.20
2008,07,14,04,26,9.20
2008,07,14,04,27,9.20
2008,07,14,04,28,9.20
2008,07,14,04,29,9.20
2008,07,14,04,30,9.20
2008,07,14,04,31,9.20
2008,07,14,04,32,9.10
2008,07,14,04,33,9.10
2008,07,14,04,34,9.10
2008,07,14,04,35,9.10
2008,07,14,04,36,9.10
2008,07,14,04,37,9.10
2008,07,14,04,38,9.10
2008,07,14,04,39,9.10
2008,07,14,04,40,9.00
2008,07,14,04,41,9.00
2008,07,14,04,42,8.90
2008,07,14,04,43,8.90
2008,07,14,04,44,8.80
2008,07,14,04,45,8.80
2008,07,14,04,46,8.80
2008,07,14,04,47,8.80
2008,07,14,04,48,8.80
2008,07,14,04,49,8.80
2008,07,14,04,50,8.80
2008,07,14,04,51,8.70
2008,07,14,04,52,8.70
2008,07,14,04,53,8.70
2008,07,14,04,54,8.70
2008,07,14,04,55,8.70
2008,07,14,04,56,8.70
2008,07,14,04,57,8.70
2008,07,14,04,58,8.70
2008,07,14,04,59,8.70
2008,07,14,05,00,8.70
2008,07,14,05,01,8.60
2008,07,14,05,02,8.60
2008,07,14,05,03,8.60
2008,07,14,05,04,8.50
2008,07,14,05,05,8.50
2008,07,14,05,06,8.40
2008,07,14,05,07,8.40
2008,07,14,05,08,8.40
2008,07,14,05,09,8.40
2008,07,14,05,10,8.30
2008,07,14,05,11,8.30
2008,07,14,05,12,8.30
2008,07,14,05,13,8.30
2008,07,14,05,14,8.30
2008,07,14,05,15,8.30
2008,07,14,05,16,8.30
2008,07,14,05,17,8.30
2008,07,14,05,18,8.30
2008,07,14,05,19,8.30
2008,07,14,05,20,8.30
2008,07,14,05,21,8.30
2008,07,14,05,22,8.30
2008,07,14,05,23,8.30
2008,07,14,05,24,8.30
2008,07,14,05,25,8.30
2008,07,14,05,26,8.30
2008,07,14,05,27,8.30
2008,07,14,05,28,8.30
2008,07,14,05,29,8.30
2008,07,14,05,30,8.30
2008,07,14,05,31,8.30
2008,07,14,05,32,8.30
2008,07,14,05,33,8.30
2008,07,14,05,34,8.40
2008,07,14,05,35,8.40
2008,07,14,05,36,8.40
2008,07,14,05,37,8.40
2008,07,14,05,38,8.40
2008,07,14,05,39,8.40
2008,07,14,05,40,8.40
2008,07,14,05,41,8.40
2008,07,14,05,42,8.40
2008,07,14,05,43,8.40
2008,07,14,05,44,8.40
2008,07,14,05,45,8.40
2008,07,14,05,46,8.50
2008,07,14,05,47,8.50
2008,07,14,05,48,8.50
2008,07,14,05,49,8.60
2008,07,14,05,50,8.60
2008,07,14,05,51,8.60
2008,07,14,05,52,8.60
2008,07,14,05,53,8.60
2008,07,14,05,54,8.60
2008,07,14,05,55,8.70
2008,07,14,05,56,8.70
2008,07,14,05,57,8.70
2008,07,14,05,58,8.70
2008,07,14,05,59,8.80
2008,07,14,06,00,8.90
2008,07,14,06,01,8.90
2008,07,14,06,02,8.90
2008,07,14,06,03,9.00
2008,07,14,06,04,9.00
2008,07,14,06,05,9.10
2008,07,14,06,06,9.20
2008,07,14,06,07,9.20
2008,07,14,06,08,9.30
2008,07,14,06,09,9.30
2008,07,14,06,10,9.40
2008,07,14,06,11,9.40
2008,07,14,06,12,9.50
2008,07,14,06,13,9.50
2008,07,14,06,14,9.50
2008,07,14,06,15,9.30
2008,07,14,06,16,9.20
2008,07,14,06,17,9.10
2008,07,14,06,18,9.10
2008,07,14,06,19,9.00
2008,07,14,06,20,9.00
2008,07,14,06,21,9.00
2008,07,14,06,22,8.90
2008,07,14,06,23,8.90
2008,07,14,06,24,8.90
2008,07,14,06,25,8.90
2008,07,14,06,26,8.90
2008,07,14,06,27,8.80
2008,07,14,06,28,8.80
2008,07,14,06,29,8.80
2008,07,14,06,30,8.80
2008,07,14,06,31,8.80
2008,07,14,06,32,8.90
2008,07,14,06,33,8.90
2008,07,14,06,34,8.90
2008,07,14,06,35,8.90
2008,07,14,06,36,9.00
2008,07,14,06,37,9.00
2008,07,14,06,38,9.00
2008,07,14,06,39,9.10
2008,07,14,06,40,9.10
2008,07,14,06,41,9.10
2008,07,14,06,42,9.10
2008,07,14,06,43,9.20
2008,07,14,06,44,9.20
2008,07,14,06,45,9.20
2008,07,14,06,46,9.30
2008,07,14,06,47,9.40
2008,07,14,06,48,9.40
2008,07,14,06,49,9.50
2008,07,14,06,50,9.50
2008,07,14,06,51,9.50
2008,07,14,06,52,9.60
2008,07,14,06,53,9.70
2008,07,14,06,54,9.80
2008,07,14,06,55,9.90
2008,07,14,06,56,10.00
2008,07,14,06,57,10.10
2008,07,14,06,58,10.30
2008,07,14,06,59,10.50
2008,07,14,07,00,10.70
2008,07,14,07,01,10.90
2008,07,14,07,02,11.10
2008,07,14,07,03,11.30
2008,07,14,07,04,11.50
2008,07,14,07,05,11.60
2008,07,14,07,06,11.80
2008,07,14,07,07,11.90
2008,07,14,07,08,12.00
2008,07,14,07,09,12.20
2008,07,14,07,10,12.30
2008,07,14,07,11,12.40
2008,07,14,07,12,12.50
2008,07,14,07,13,12.60
2008,07,14,07,14,12.70
2008,07,14,07,15,12.70
2008,07,14,07,16,12.80
2008,07,14,07,17,12.80
2008,07,14,07,18,12.80
2008,07,14,07,19,12.90
2008,07,14,07,20,12.90
2008,07,14,07,21,13.00
2008,07,14,07,22,13.00
2008,07,14,07,23,13.00
2008,07,14,07,24,13.10
2008,07,14,07,25,13.10
2008,07,14,07,26,13.10
2008,07,14,07,27,13.10
2008,07,14,07,28,13.10
2008,07,14,07,29,13.10
2008,07,14,07,30,13.00
2008,07,14,07,31,13.00
2008,07,14,07,32,13.00
2008,07,14,07,33,13.00
2008,07,14,07,34,13.00
2008,07,14,07,35,12.90
2008,07,14,07,36,12.90
2008,07,14,07,37,12.80
2008,07,14,07,38,12.80
2008,07,14,07,39,12.80
2008,07,14,07,40,12.80
2008,07,14,07,41,12.80
2008,07,14,07,42,12.80
2008,07,14,07,43,12.80
2008,07,14,07,44,12.80
2008,07,14,07,45,12.80
2008,07,14,07,46,12.90
2008,07,14,07,47,13.00
2008,07,14,07,48,13.00
2008,07,14,07,49,13.00
2008,07,14,07,50,13.00
2008,07,14,07,51,13.10
2008,07,14,07,52,13.10
2008,07,14,07,53,13.10
2008,07,14,07,54,13.20
2008,07,14,07,55,13.20
2008,07,14,07,56,13.30
2008,07,14,07,57,13.30
2008,07,14,07,58,13.40
2008,07,14,07,59,13.40
2008,07,14,08,00,13.50
2008,07,14,08,01,13.60
2008,07,14,08,02,13.60
2008,07,14,08,03,13.60
2008,07,14,08,04,13.50
2008,07,14,08,05,13.50
2008,07,14,08,06,13.50
2008,07,14,08,07,13.50
2008,07,14,08,08,13.40
2008,07,14,08,09,13.40
2008,07,14,08,10,13.40
2008,07,14,08,11,13.40
2008,07,14,08,12,13.40
2008,07,14,08,13,13.40
2008,07,14,08,14,13.40
2008,07,14,08,15,13.50
2008,07,14,08,16,13.50
2008,07,14,08,17,13.50
2008,07,14,08,18,13.50
2008,07,14,08,19,13.60
2008,07,14,08,20,13.60
2008,07,14,08,21,13.50
2008,07,14,08,22,13.50
2008,07,14,08,23,13.60
2008,07,14,08,24,13.60
2008,07,14,08,25,13.60
2008,07,14,08,26,13.60
2008,07,14,08,27,13.60
2008,07,14,08,28,13.50
2008,07,14,08,29,13.50
2008,07,14,08,30,13.40
2008,07,14,08,31,13.40
2008,07,14,08,32,13.50
2008,07,14,08,33,13.50
2008,07,14,08,34,13.50
2008,07,14,08,35,13.60
2008,07,14,08,36,13.60
2008,07,14,08,37,13.60
2008,07,14,08,38,13.70
2008,07,14,08,39,13.70
2008,07,14,08,40,13.60
2008,07,14,08,41,13.50
2008,07,14,08,42,13.50
2008,07,14,08,43,13.40
2008,07,14,08,44,13.40
2008,07,14,08,45,13.50
2008,07,14,08,46,13.60
2008,07,14,08,47,13.70
2008,07,14,08,48,13.70
2008,07,14,08,49,13.80
2008,07,14,08,50,13.90
2008,07,14,08,51,14.00
2008,07,14,08,52,14.00
2008,07,14,08,53,14.00
2008,07,14,08,54,14.20
2008,07,14,08,55,14.20
2008,07,14,08,56,14.30
2008,07,14,08,57,14.30
2008,07,14,08,58,14.30
2008,07,14,08,59,14.40
2008,07,14,09,00,14.40
2008,07,14,09,01,14.40
2008,07,14,09,02,14.30
2008,07,14,09,03,14.20
2008,07,14,09,04,14.30
2008,07,14,09,05,14.30
2008,07,14,09,06,14.40
2008,07,14,09,07,14.40
2008,07,14,09,08,14.50
2008,07,14,09,09,14.50
2008,07,14,09,10,14.50
2008,07,14,09,11,14.60
2008,07,14,09,12,14.70
2008,07,14,09,13,14.80
2008,07,14,09,14,14.80
2008,07,14,09,15,14.80
2008,07,14,09,16,14.80
2008,07,14,09,17,14.80
2008,07,14,09,18,14.90
2008,07,14,09,19,15.00
2008,07,14,09,20,15.00
2008,07,14,09,21,15.10
2008,07,14,09,22,15.20
2008,07,14,09,23,15.20
2008,07,14,09,24,15.10
2008,07,14,09,25,15.10
2008,07,14,09,26,15.10
2008,07,14,09,27,15.00
2008,07,14,09,28,15.00
2008,07,14,09,29,15.00
2008,07,14,09,30,15.00
2008,07,14,09,31,15.00
2008,07,14,09,32,14.90
2008,07,14,09,33,14.80
2008,07,14,09,34,14.70
2008,07,14,09,35,14.60
2008,07,14,09,36,14.50
2008,07,14,09,37,14.40
2008,07,14,09,38,14.40
2008,07,14,09,39,14.50
2008,07,14,09,40,14.50
2008,07,14,09,41,14.60
2008,07,14,09,42,14.70
2008,07,14,09,43,14.80
2008,07,14,09,44,14.90
2008,07,14,09,45,14.90
2008,07,14,09,46,14.90
2008,07,14,09,47,14.90
2008,07,14,09,48,14.90
2008,07,14,09,49,15.00
2008,07,14,09,50,15.10
2008,07,14,09,51,15.10
2008,07,14,09,52,15.10
2008,07,14,09,53,15.10
2008,07,14,09,54,15.00
2008,07,14,09,55,14.90
2008,07,14,09,56,14.90
2008,07,14,09,57,15.00
2008,07,14,09,58,15.00
2008,07,14,09,59,15.10
2008,07,14,10,00,15.10
2008,07,14,10,01,15.10
2008,07,14,10,02,15.10
2008,07,14,10,03,15.10
2008,07,14,10,04,15.20
2008,07,14,10,05,15.20
2008,07,14,10,06,15.20
2008,07,14,10,07,15.20
2008,07,14,10,08,15.10
2008,07,14,10,09,15.10
2008,07,14,10,10,15.10
2008,07,14,10,11,15.10
2008,07,14,10,12,15.00
2008,07,14,10,13,15.00
2008,07,14,10,14,15.00
2008,07,14,10,15,15.00
2008,07,14,10,16,15.00
2008,07,14,10,17,14.90
2008,07,14,10,18,14.80
2008,07,14,10,19,14.80
2008,07,14,10,20,14.80
2008,07,14,10,21,14.80
2008,07,14,10,22,14.80
2008,07,14,10,23,14.80
2008,07,14,10,24,14.90
2008,07,14,10,25,14.90
2008,07,14,10,26,14.80
2008,07,14,10,27,14.80
2008,07,14,10,28,14.70
2008,07,14,10,29,14.80
2008,07,14,10,30,14.80
2008,07,14,10,31,14.80
2008,07,14,10,32,14.90
2008,07,14,10,33,14.90
2008,07,14,10,34,15.00
2008,07,14,10,35,15.00
2008,07,14,10,36,15.00
2008,07,14,10,37,15.00
2008,07,14,10,38,15.00
2008,07,14,10,39,15.00
2008,07,14,10,40,15.00
2008,07,14,10,41,14.90
2008,07,14,10,42,14.90
2008,07,14,10,43,14.80
2008,07,14,10,44,14.80
2008,07,14,10,45,14.80
2008,07,14,10,46,14.80
2008,07,14,10,47,14.80
2008,07,14,10,48,14.80
2008,07,14,10,49,14.90
2008,07,14,10,50,14.90
2008,07,14,10,51,15.00
2008,07,14,10,52,15.00
2008,07,14,10,53,15.00
2008,07,14,10,54,15.10
2008,07,14,10,55,15.10
2008,07,14,10,56,15.10
2008,07,14,10,57,15.20
2008,07,14,10,58,15.20
2008,07,14,10,59,15.30
2008,07,14,11,00,15.30
2008,07,14,11,01,15.30
2008,07,14,11,02,15.30
2008,07,14,11,03,15.30
2008,07,14,11,04,15.30
2008,07,14,11,05,15.30
2008,07,14,11,06,15.30
2008,07,14,11,07,15.30
2008,07,14,11,08,15.30
2008,07,14,11,09,15.30
2008,07,14,11,10,15.30
2008,07,14,11,11,15.30
2008,07,14,11,12,15.20
2008,07,14,11,13,15.20
2008,07,14,11,14,15.20
2008,07,14,11,15,15.10
2008,07,14,11,16,15.10
2008,07,14,11,17,15.20
2008,07,14,11,18,15.30
2008,07,14,11,19,15.40
2008,07,14,11,20,15.50
2008,07,14,11,21,15.50
2008,07,14,11,22,15.60
2008,07,14,11,23,15.70
2008,07,14,11,24,15.70
2008,07,14,11,25,15.70
2008,07,14,11,26,15.70
2008,07,14,11,27,15.70
2008,07,14,11,28,15.70
2008,07,14,11,29,15.80
2008,07,14,11,30,15.80
2008,07,14,11,31,15.70
2008,07,14,11,32,15.70
2008,07,14,11,33,15.70
2008,07,14,11,34,15.70
2008,07,14,11,35,15.70
2008,07,14,11,36,15.80
2008,07,14,11,37,15.80
2008,07,14,11,38,15.80
2008,07,14,11,39,15.80
2008,07,14,11,40,15.80
2008,07,14,11,41,15.80
2008,07,14,11,42,15.80
2008,07,14,11,43,15.90
2008,07,14,11,44,16.00
2008,07,14,11,45,16.10
2008,07,14,11,46,16.10
2008,07,14,11,47,16.10
2008,07,14,11,48,16.10
2008,07,14,11,49,16.10
2008,07,14,11,50,16.20
2008,07,14,11,51,16.30
2008,07,14,11,52,16.30
2008,07,14,11,53,16.40
2008,07,14,11,54,16.50
2008,07,14,11,55,16.60
2008,07,14,11,56,16.60
2008,07,14,11,57,16.60
2008,07,14,11,58,16.60
2008,07,14,11,59,16.70
2008,07,14,12,00,16.80
2008,07,14,12,01,16.90
2008,07,14,12,02,17.00
2008,07,14,12,03,17.20
2008,07,14,12,04,17.30
2008,07,14,12,05,17.50
2008,07,14,12,06,17.60
2008,07,14,12,07,17.70
2008,07,14,12,08,17.70
2008,07,14,12,09,17.80
2008,07,14,12,10,17.80
2008,07,14,12,11,18.00
2008,07,14,12,12,18.10
2008,07,14,12,13,18.20
2008,07,14,12,14,18.20
2008,07,14,12,15,18.20
2008,07,14,12,16,18.20
2008,07,14,12,17,18.20
2008,07,14,12,18,18.20
2008,07,14,12,19,18.20
2008,07,14,12,20,18.00
2008,07,14,12,21,17.90
2008,07,14,12,22,17.80
2008,07,14,12,23,17.70
2008,07,14,12,24,17.50
2008,07,14,12,25,17.40
2008,07,14,12,26,17.30
2008,07,14,12,27,17.20
2008,07,14,12,28,17.20
2008,07,14,12,29,17.20
2008,07,14,12,30,17.20
2008,07,14,12,31,17.20
2008,07,14,12,32,17.20
2008,07,14,12,33,17.30
2008,07,14,12,34,17.20
2008,07,14,12,35,17.10
2008,07,14,12,36,17.00
2008,07,14,12,37,17.00
2008,07,14,12,38,16.90
2008,07,14,12,39,16.90
2008,07,14,12,40,16.90
2008,07,14,12,41,16.90
2008,07,14,12,42,16.90
2008,07,14,12,43,16.90
2008,07,14,12,44,17.00
2008,07,14,12,45,16.90
2008,07,14,12,46,16.80
2008,07,14,12,47,16.60
2008,07,14,12,48,16.40
2008,07,14,12,49,16.30
2008,07,14,12,50,16.20
2008,07,14,12,51,16.10
2008,07,14,12,52,16.10
2008,07,14,12,53,15.90
2008,07,14,12,54,15.80
2008,07,14,12,55,15.80
2008,07,14,12,56,15.80
2008,07,14,12,57,15.90
2008,07,14,12,58,16.00
2008,07,14,12,59,16.10
2008,07,14,13,00,16.10
2008,07,14,13,01,16.00
2008,07,14,13,02,15.90
2008,07,14,13,03,15.90
2008,07,14,13,04,15.90
2008,07,14,13,05,16.00
2008,07,14,13,06,16.20
2008,07,14,13,07,16.30
2008,07,14,13,08,16.40
2008,07,14,13,09,16.60
2008,07,14,13,10,16.60
2008,07,14,13,11,16.70
2008,07,14,13,12,16.80
2008,07,14,13,13,16.80
2008,07,14,13,14,16.80
2008,07,14,13,15,16.90
2008,07,14,13,16,16.80
2008,07,14,13,17,16.70
2008,07,14,13,18,16.70
2008,07,14,13,19,16.60
2008,07,14,13,20,16.50
2008,07,14,13,21,16.40
2008,07,14,13,22,16.40
2008,07,14,13,23,16.40
2008,07,14,13,24,16.40
2008,07,14,13,25,16.40
2008,07,14,13,26,16.50
2008,07,14,13,27,16.60
2008,07,14,13,28,16.60
2008,07,14,13,29,16.70
2008,07,14,13,30,16.80
2008,07,14,13,31,16.80
2008,07,14,13,32,16.80
2008,07,14,13,33,16.80
2008,07,14,13,34,16.80
2008,07,14,13,35,16.70
2008,07,14,13,36,16.70
2008,07,14,13,37,16.70
2008,07,14,13,38,16.70
2008,07,14,13,39,16.70
2008,07,14,13,40,16.70
2008,07,14,13,41,16.70
2008,07,14,13,42,16.70
2008,07,14,13,43,16.70
2008,07,14,13,44,16.70
2008,07,14,13,45,16.60
2008,07,14,13,46,16.60
2008,07,14,13,47,16.70
2008,07,14,13,48,16.70
2008,07,14,13,49,16.90
2008,07,14,13,50,17.00
2008,07,14,13,51,17.20
2008,07,14,13,52,17.30
2008,07,14,13,53,17.40
2008,07,14,13,54,17.60
2008,07,14,13,55,17.70
2008,07,14,13,56,17.90
2008,07,14,13,57,18.00
2008,07,14,13,58,18.10
2008,07,14,13,59,18.20
2008,07,14,14,00,18.20
2008,07,14,14,01,18.10
2008,07,14,14,02,18.00
2008,07,14,14,03,17.90
2008,07,14,14,04,18.10
2008,07,14,14,05,18.10
2008,07,14,14,06,18.10
2008,07,14,14,07,17.90
2008,07,14,14,08,17.90
2008,07,14,14,09,17.90
2008,07,14,14,10,17.90
2008,07,14,14,11,17.80
2008,07,14,14,12,17.70
2008,07,14,14,13,17.60
2008,07,14,14,14,17.50
2008,07,14,14,15,17.50
2008,07,14,14,16,17.40
2008,07,14,14,17,17.40
2008,07,14,14,18,17.30
2008,07,14,14,19,17.20
2008,07,14,14,20,17.10
2008,07,14,14,21,17.10
2008,07,14,14,22,17.10
2008,07,14,14,23,17.20
2008,07,14,14,24,17.30
2008,07,14,14,25,17.40
2008,07,14,14,26,17.40
2008,07,14,14,27,17.50
2008,07,14,14,28,17.60
2008,07,14,14,29,17.70
2008,07,14,14,30,17.80
2008,07,14,14,31,17.90
2008,07,14,14,32,18.00
2008,07,14,14,33,18.10
2008,07,14,14,34,18.10
2008,07,14,14,35,18.20
2008,07,14,14,36,18.20
2008,07,14,14,37,18.20
2008,07,14,14,38,18.20
2008,07,14,14,39,18.30
2008,07,14,14,40,18.30
2008,07,14,14,41,18.40
2008,07,14,14,42,18.40
2008,07,14,14,43,18.50
2008,07,14,14,44,18.50
2008,07,14,14,45,18.60
2008,07,14,14,46,18.60
2008,07,14,14,47,18.60
2008,07,14,14,48,18.70
2008,07,14,14,49,18.70
2008,07,14,14,50,18.70
2008,07,14,14,51,18.70
2008,07,14,14,52,18.70
2008,07,14,14,53,18.70
2008,07,14,14,54,18.70
2008,07,14,14,55,18.70
2008,07,14,14,56,18.60
2008,07,14,14,57,18.60
2008,07,14,14,58,18.60
2008,07,14,14,59,18.70
2008,07,14,15,00,18.70
2008,07,14,15,01,18.80
2008,07,14,15,02,18.90
2008,07,14,15,03,19.00
2008,07,14,15,04,19.10
2008,07,14,15,05,19.10
2008,07,14,15,06,19.20
2008,07,14,15,07,19.30
2008,07,14,15,08,19.40
2008,07,14,15,09,19.50
2008,07,14,15,10,19.50
2008,07,14,15,11,19.50
2008,07,14,15,12,19.60
2008,07,14,15,13,19.60
2008,07,14,15,14,19.60
2008,07,14,15,15,19.50
2008,07,14,15,16,19.50
2008,07,14,15,17,19.50
2008,07,14,15,18,19.50
2008,07,14,15,19,19.40
2008,07,14,15,20,19.30
2008,07,14,15,21,19.20
2008,07,14,15,22,19.10
2008,07,14,15,23,19.10
2008,07,14,15,24,18.90
2008,07,14,15,25,18.90
2008,07,14,15,26,18.80
2008,07,14,15,27,18.70
2008,07,14,15,28,18.60
2008,07,14,15,29,18.60
2008,07,14,15,30,18.50
2008,07,14,15,31,18.50
2008,07,14,15,32,18.40
2008,07,14,15,33,18.40
2008,07,14,15,34,18.40
2008,07,14,15,35,18.40
2008,07,14,15,36,18.40
2008,07,14,15,37,18.40
2008,07,14,15,38,18.40
2008,07,14,15,39,18.40
2008,07,14,15,40,18.50
2008,07,14,15,41,18.50
2008,07,14,15,42,18.60
2008,07,14,15,43,18.60
2008,07,14,15,44,18.60
2008,07,14,15,45,18.70
2008,07,14,15,46,18.70
2008,07,14,15,47,18.70
2008,07,14,15,48,18.80
2008,07,14,15,49,18.80
2008,07,14,15,50,18.80
2008,07,14,15,51,18.90
2008,07,14,15,52,18.90
2008,07,14,15,53,19.00
2008,07,14,15,54,19.10
2008,07,14,15,55,19.10
2008,07,14,15,56,19.10
2008,07,14,15,57,19.10
2008,07,14,15,58,19.00
2008,07,14,15,59,18.90
2008,07,14,16,00,18.70
2008,07,14,16,01,18.50
2008,07,14,16,02,18.40
2008,07,14,16,03,18.30
2008,07,14,16,04,18.10
2008,07,14,16,05,18.00
2008,07,14,16,06,17.90
2008,07,14,16,07,17.80
2008,07,14,16,08,17.80
2008,07,14,16,09,17.60
2008,07,14,16,10,17.50
2008,07,14,16,11,17.40
2008,07,14,16,12,17.30
2008,07,14,16,13,17.30
2008,07,14,16,14,17.20
2008,07,14,16,15,17.10
2008,07,14,16,16,17.00
2008,07,14,16,17,17.00
2008,07,14,16,18,17.00
2008,07,14,16,19,16.90
2008,07,14,16,20,16.90
2008,07,14,16,21,16.90
2008,07,14,16,22,16.90
2008,07,14,16,23,17.00
2008,07,14,16,24,17.10
2008,07,14,16,25,17.20
2008,07,14,16,26,17.30
2008,07,14,16,27,17.40
2008,07,14,16,28,17.60
2008,07,14,16,29,17.70
2008,07,14,16,30,17.90
2008,07,14,16,31,18.00
2008,07,14,16,32,18.10
2008,07,14,16,33,18.20
2008,07,14,16,34,18.20
2008,07,14,16,35,18.20
2008,07,14,16,36,18.00
2008,07,14,16,37,17.70
2008,07,14,16,38,17.40
2008,07,14,16,39,17.30
2008,07,14,16,40,17.10
2008,07,14,16,41,17.00
2008,07,14,16,42,16.70
2008,07,14,16,43,16.60
2008,07,14,16,44,16.40
2008,07,14,16,45,16.40
2008,07,14,16,46,16.30
2008,07,14,16,47,16.20
2008,07,14,16,48,16.20
2008,07,14,16,49,16.10
2008,07,14,16,50,16.10
2008,07,14,16,51,16.00
2008,07,14,16,52,15.90
2008,07,14,16,53,15.90
2008,07,14,16,54,15.90
2008,07,14,16,55,16.00
2008,07,14,16,56,16.10
2008,07,14,16,57,16.20
2008,07,14,16,58,16.30
2008,07,14,16,59,16.30
2008,07,14,17,00,16.30
2008,07,14,17,01,16.30
2008,07,14,17,02,16.40
2008,07,14,17,03,16.40
2008,07,14,17,04,16.40
2008,07,14,17,05,16.50
2008,07,14,17,06,16.60
2008,07,14,17,07,16.70
2008,07,14,17,08,16.80
2008,07,14,17,09,16.90
2008,07,14,17,10,17.10
2008,07,14,17,11,17.20
2008,07,14,17,12,17.40
2008,07,14,17,13,17.50
2008,07,14,17,14,17.50
2008,07,14,17,15,17.60
2008,07,14,17,16,17.60
2008,07,14,17,17,17.50
2008,07,14,17,18,17.50
2008,07,14,17,19,17.40
2008,07,14,17,20,17.40
2008,07,14,17,21,17.30
2008,07,14,17,22,17.30
2008,07,14,17,23,17.30
2008,07,14,17,24,17.30
2008,07,14,17,25,17.30
2008,07,14,17,26,17.30
2008,07,14,17,27,17.20